Location: LC-39B
(28.6273°N, 80.6211°W)
Time: 22:24:50
(UTC+00:00)

ISS - Visible Passes

Search period start: 22 October 2014 00:00
Search period end: 01 November 2014 00:00
Orbit: 413 x 416 km, 51.6° (Epoch: 22 October)

Date Brightness Start Highest point End Pass type
(mag) Time Alt. Az. Time Alt. Az. Time Alt. Az.
24 Oct -0.8 23:43:55 10° NNE 23:44:05 10° NNE 23:44:05 10° NNE visible
26 Oct -1.0 00:29:09 10° NW 00:30:15 19° NNW 00:30:15 19° NNW visible
26 Oct -2.2 23:40:15 10° NNW 23:43:09 27° NE 23:43:42 26° ENE visible
28 Oct -1.7 00:27:28 10° WNW 00:30:18 34° WSW 00:30:18 34° WSW visible
28 Oct -3.2 23:37:58 10° NW 23:41:17 79° SW 23:44:18 12° SE visible
30 Oct -0.5 23:36:33 10° WNW 23:39:03 20° SW 23:41:33 10° S visible
